Weather History for Kansas City International, MO

Change the Weather History Date:

Sunday, July 28, 2013

  Actual Average Record
Temperature  
Mean Temperature 66 °F 79 °F  
Max Temperature 78 °F 89 °F 103 °F (1983)
Min Temperature 53 °F 69 °F 52 °F (1994)
Degree Days  
Heating Degree Days 0 0  
Month to date heating degree days 0 0  
Since 1 June heating degree days 17 9  
Since 1 July heating degree days 0 0  
Cooling Degree Days 1 14  
Month to date cooling degree days 345 377  
Year to date cooling degree days 726 759  
Since 1 June cooling degree days 621 643  
Growing Degree Days 16 (Base 50)    
Moisture  
Dew Point 49 °F    
Average Humidity 55    
Maximum Humidity 77    
Minimum Humidity 33    
Precipitation  
Precipitation 0.00 in 0.12 in 4.57 in (1895)
Month to date precipitation 0.44 4.08  
Year to date precipitation 18.49 23.14  
Snow  
Snow 0.00 in 0.00 in 0.00 in ()
Month to date snowfall 0.0 0.0  
Since 1 June snowfall 0.0 0.0  
Since 1 July snowfall 0.0 0.0  
Snow Depth 0.00 in    
Sea Level Pressure  
Sea Level Pressure 30.03 in    
Wind  
Wind Speed 4 mph (West)    
Max Wind Speed 10 mph    
Max Gust Speed 14 mph    
Visibility 10 miles    
Events      
T = Trace of Precipitation, MM = Missing Value Source: NWS Daily Summary

Daily Weather History Graph

Daily Weather History Graph

Search for Another Location

Airport:

Trip Planner

Search our weather history database for the weather conditions in past years. The results will help you decide how hot, cold, wet, or windy it might be!

Date:

Astronomy

Jul. 28, 2013 Rise Set
Actual Time 6:15 AM CDT 8:34 PM CDT
Civil Twilight 5:45 AM CDT 9:04 PM CDT
Nautical Twilight 5:08 AM CDT 9:41 PM CDT
Astronomical Twilight 4:27 AM CDT 10:22 PM CDT
Moon 11:59 PM CDT 12:56 PM CDT
Length of Visible Light 15h 19m
Length of Day
14h 18m
Waning Gibbous, 60% of the Moon is Illuminated
Jul 28
Waning Gibbous
Jul 29
Last Quarter
Aug 6
New
Aug 14
First Quarter
Aug 20
Full

Hourly Weather History & Observations

Time (CDT) Temp. Dew Point Humidity Pressure Visibility Wind Dir Wind Speed Gust Speed Precip Events Conditions
12:53 AM 63.0 °F 46.0 °F 54% 30.02 in 10.0 mi Calm Calm - N/A   Scattered Clouds
1:53 AM 61.0 °F 46.0 °F 58% 30.03 in 10.0 mi Calm Calm - N/A   Overcast
2:53 AM 59.0 °F 46.9 °F 64% 30.02 in 10.0 mi NNE 3.5 mph - N/A   Overcast
3:53 AM 57.0 °F 48.0 °F 72% 30.03 in 10.0 mi Calm Calm - N/A   Scattered Clouds
4:53 AM 57.9 °F 46.9 °F 67% 30.04 in 10.0 mi West 5.8 mph - N/A   Partly Cloudy
5:53 AM 54.0 °F 46.9 °F 77% 30.03 in 10.0 mi North 6.9 mph - N/A   Scattered Clouds
6:53 AM 57.9 °F 46.0 °F 65% 30.04 in 10.0 mi Calm Calm - N/A   Mostly Cloudy
7:53 AM 62.1 °F 48.9 °F 62% 30.04 in 10.0 mi North 3.5 mph - N/A   Scattered Clouds
8:53 AM 66.0 °F 50.0 °F 56% 30.06 in 10.0 mi Calm Calm - N/A   Scattered Clouds
9:53 AM 70.0 °F 48.9 °F 47% 30.05 in 10.0 mi NNE 6.9 mph - N/A   Mostly Cloudy
10:53 AM 72.0 °F 46.0 °F 40% 30.04 in 10.0 mi North 6.9 mph - N/A   Mostly Cloudy
11:53 AM 73.0 °F 46.9 °F 39% 30.04 in 10.0 mi NNW 5.8 mph - N/A   Mostly Cloudy
12:53 PM 75.0 °F 45.0 °F 34% 30.03 in 10.0 mi Variable 4.6 mph - N/A   Mostly Cloudy
1:53 PM 75.9 °F 46.9 °F 36% 30.02 in 10.0 mi West 5.8 mph - N/A   Overcast
2:53 PM 75.9 °F 48.9 °F 38% 30.02 in 10.0 mi West 6.9 mph - N/A   Overcast
3:53 PM 77.0 °F 46.9 °F 34% 30.03 in 10.0 mi WSW 8.1 mph - N/A   Overcast
4:53 PM 75.0 °F 48.9 °F 40% 30.02 in 10.0 mi SW 8.1 mph - N/A   Overcast
5:53 PM 75.0 °F 46.0 °F 36% 30.02 in 10.0 mi WSW 4.6 mph - N/A   Overcast
6:53 PM 73.0 °F 52.0 °F 48% 30.03 in 10.0 mi SW 6.9 mph - N/A   Overcast
7:53 PM 70.0 °F 54.0 °F 57% 30.02 in 10.0 mi South 3.5 mph - N/A   Overcast
8:53 PM 69.1 °F 53.1 °F 57% 30.02 in 10.0 mi SW 3.5 mph - N/A   Overcast
9:53 PM 66.9 °F 55.0 °F 66% 30.04 in 10.0 mi SW 4.6 mph - N/A   Overcast
10:53 PM 66.9 °F 54.0 °F 63% 30.05 in 10.0 mi WSW 4.6 mph - N/A   Overcast
11:53 PM 66.0 °F 55.0 °F 68% 30.06 in 10.0 mi SW 5.8 mph - N/A   Overcast